#timestamp,LO_Frequency,Hit,StdDev 
1502420415.8,286047002.6,N,1.1
1502420435.6,286047002.4,N,1.2
1502420455.5,286047002.7,N,1.2
1502420475.3,286046999.7,N,1.2
1502420495.1,286047002.6,N,1.2
1502420515.9,286046999.8,N,1.2
1502420535.7,286047000.1,N,1.2
1502420555.6,286047002.8,N,1.3
1502420575.4,286047002.8,N,1.3
1502420595.2,286047002.1,N,1.3
1502420615.1,286047002.8,N,1.3
1502420616.0,286047002.8,N,1.4
1502420635.8,286047002.5,N,1.4
1502420655.7,286047002.5,N,1.4
1502420675.5,286046999.7,N,1.4
1502420695.3,286047000.0,N,1.4
1502420715.2,286047000.2,N,1.4
1502420735.0,286047001.0,N,1.4
1502420735.9,286047001.0,N,1.4
1502420755.8,286047000.6,N,1.4
1502420775.6,286047000.3,N,1.3
1502420795.4,286047001.1,N,1.3
1502420815.3,286046998.2,N,1.3
1502420835.1,286046998.4,N,1.3
1502420855.8,286046998.9,N,1.4
1502420875.7,286046998.4,N,1.5
1502420895.5,286046999.3,N,1.5
1502420915.4,286046999.6,N,1.5
1502420935.2,286046996.8,N,1.7
1502420955.0,286046996.7,N,1.8
1502420955.9,286046996.7,N,1.9
1502420975.8,286046997.6,N,1.9
1502420995.6,286046997.5,N,1.9
1502421015.5,286046997.3,N,2.0
1502421035.3,286046997.9,N,2.0
1502421055.1,286046997.6,N,2.0
1502421075.9,286046995.2,N,2.2
1502421095.7,286046996.1,N,2.2
1502421115.6,286046996.0,N,2.2
1502421135.4,286046996.3,N,2.2
1502421155.2,286046995.9,N,2.1
1502421175.1,286046993.9,N,2.1
1502421176.0,286046993.9,N,2.1
1502421195.8,286046993.7,N,2.1
1502421215.7,286046993.5,Y,0.0
1502421235.5,286046998.0,P,0.1
1502421255.3,286046995.1,P,1.3
1502421275.2,286046995.5,P,1.3
1502421295.0,286046996.1,N,1.2
1502421295.9,286046996.1,Y,0.0
1502421315.8,286046999.5,P,1.5
1502421335.6,286046999.2,N,1.3
1502421355.4,286046999.4,N,1.2
1502421375.3,286046999.2,N,1.1
1502421395.1,286046999.0,N,1.0
1502421415.9,286046999.0,N,1.0
1502421435.7,286046996.7,Y,0.0
1502421455.5,286046999.4,P,0.3
1502421475.4,286046999.5,N,0.3
1502421495.2,286046998.6,P,0.4
1502421515.0,286046998.6,Y,0.0
1502421516.0,286046998.6,P,0.2
1502421535.8,286047001.0,P,1.0
1502421555.6,286047000.6,N,1.0
1502421575.5,286047000.3,N,0.9
1502421595.3,286047000.0,N,0.8
1502421615.1,286047001.0,N,0.9
1502421635.9,286047000.9,N,0.9
1502421655.7,286047000.4,N,0.8
1502421675.6,286047001.0,N,0.8
1502421695.4,286046998.7,N,0.9
1502421715.2,286046999.0,N,0.9
1502421735.1,286046998.7,N,0.9
1502421736.0,286046998.7,N,1.0
1502421755.8,286046998.9,N,1.0
1502421775.7,286046999.3,N,0.9
1502421795.5,286046999.2,N,0.9
1502421815.3,286046999.0,N,0.9
1502421835.2,286046999.6,N,0.9
1502421855.0,286046999.2,N,0.9
1502421855.9,286046999.2,N,0.9
1502421875.8,286046998.9,N,0.8
1502421895.6,286046998.3,N,0.9
1502421915.4,286046999.4,N,0.9
1502421935.3,286046999.5,N,0.8
1502421955.1,286046999.4,N,0.8
1502421975.9,286046998.7,N,0.8
1502421995.7,286046999.0,N,0.8
1502422015.5,286046998.8,N,0.8
1502422035.4,286046999.1,N,0.8
1502422055.2,286046999.0,N,0.8
1502422075.0,286046998.9,N,0.8
1502422075.9,286046998.9,N,0.7
1502422095.8,286046999.0,N,0.7
1502422115.6,286046998.4,N,0.7
1502422135.5,286047000.6,N,0.7
1502422155.3,286047000.9,N,0.7
1502422175.1,286047001.0,N,0.7
1502422195.9,286047001.0,N,0.8
1502422215.7,286047001.2,N,0.8
1502422235.6,286046999.8,N,0.8
1502422255.4,286047000.0,N,0.8
1502422275.2,286047001.0,N,0.8
1502422295.1,286047000.2,N,0.8
1502422296.0,286047000.2,N,0.8
1502422315.8,286047001.0,N,0.9
1502422335.7,286047000.6,N,0.9
1502422355.5,286047000.6,N,0.9
1502422375.3,286047000.4,N,0.9
1502422395.2,286046999.7,N,0.9
1502422415.0,286047000.5,N,0.9
1502422415.9,286047000.5,N,0.9
1502422435.8,286047000.2,N,0.8
1502422455.6,286046999.9,N,0.8
1502422475.4,286046999.7,N,0.8
1502422495.3,286047002.3,N,0.9
1502422515.1,286046999.8,N,0.9
1502422535.8,286047002.1,N,0.9
1502422555.7,286047004.4,Y,0.0
1502422575.5,286047004.0,P,1.9
1502422595.4,286047003.7,N,1.7
1502422615.2,286047003.8,N,1.6
1502422635.0,286047001.4,N,1.5
1502422635.9,286047001.4,N,1.5
1502422655.8,286047001.4,N,1.4
1502422675.6,286047001.5,N,1.3
1502422695.5,286047001.3,N,1.3
1502422715.3,286047004.3,Y,0.0
1502422735.1,286047002.3,P,0.1
1502422755.9,286047001.6,P,0.3
1502422775.7,286047004.0,P,0.9
1502422795.6,286047002.9,Y,0.0
1502422815.4,286047000.9,P,0.8
1502422835.2,286047001.1,N,0.7
1502422855.1,286047002.5,P,0.8
1502422856.0,286047002.5,Y,0.0
1502422875.8,286046998.6,P,1.6
1502422895.7,286046998.8,N,1.4
1502422915.5,286046998.1,N,1.4
1502422935.3,286046999.2,N,1.3
1502422955.2,286046998.4,N,1.2
1502422975.0,286047000.7,N,1.2
1502422975.9,286047000.7,N,1.2
1502422995.8,286047002.5,N,1.5
1502423015.6,286047002.0,N,1.6
1502423035.4,286046999.7,N,1.5
1502423055.3,286047001.1,N,1.5
1502423075.1,286047000.4,N,1.4
1502423095.9,286047002.3,N,1.5
1502423115.7,286047002.8,N,1.5
1502423135.5,286047002.6,N,1.6
1502423155.4,286046999.9,N,1.5
1502423175.2,286047000.0,N,1.5
1502423195.0,286047000.4,N,1.5
1502423195.9,286047000.4,N,1.4
1502423215.8,286047002.6,N,1.5
1502423235.6,286047002.0,N,1.5
1502423255.5,286047002.1,N,1.5
1502423275.3,286047002.0,N,1.4
1502423295.1,286046999.8,N,1.4
1502423315.9,286047000.6,N,1.4
1502423335.7,286047000.3,N,1.4
1502423355.6,286047000.6,N,1.4
1502423375.4,286047001.1,N,1.3
1502423395.2,286047002.8,N,1.4
1502423415.1,286046999.8,N,1.4
1502423416.0,286046999.8,N,1.3
1502423435.8,286047001.1,N,1.3
1502423455.7,286047002.8,N,1.2
1502423475.5,286047002.8,N,1.2
1502423495.3,286047002.3,N,1.1
1502423515.2,286047002.3,N,1.1
1502423535.0,286047000.1,N,1.1
1502423535.9,286047000.1,N,1.1
1502423555.8,286047002.2,N,1.1
1502423575.6,286046999.8,N,1.1
1502423595.4,286047002.6,N,1.1
1502423615.3,286047002.2,N,1.1
1502423635.1,286047002.0,N,1.1
1502423655.9,286047004.3,Y,0.0
1502423675.7,286047000.2,P,0.6
1502423695.6,286047000.3,N,0.5
1502423715.4,286047000.3,N,0.5
1502423735.2,286046998.2,Y,0.0
1502423755.1,286046998.5,P,1.0
1502423756.0,286046998.5,N,1.0
1502423775.8,286046998.1,N,1.0
1502423795.7,286047000.0,N,1.0
1502423815.5,286047002.7,N,1.6
1502423835.3,286047001.6,N,1.6
1502423855.2,286047001.7,N,1.6
1502423875.0,286047002.1,N,1.6
1502423875.9,286047002.1,N,1.6
1502423895.8,286047004.4,N,1.9
1502423915.6,286047001.9,N,1.8
1502423935.4,286047002.5,N,1.8
1502423955.3,286047002.2,N,1.8
1502423975.1,286047002.0,N,1.7
1502423995.9,286047003.7,N,1.8
